MSC92P DTTG-HEAT

Flight info

Callsign MSC92P
Flight time 2h 43m
Altitude 37000
Route MAZRA1E MAZRA V273 JBA UA411 TANLI A411 REXOS V950 MTG W860 MB B21 DAYFA J615 GS M999 NAKDO W615 AST
Aircraft A320/M-SDE3FGHIRWY/LB1

Departure

Time 2026-04-21 07:34
Airport Gabès Matmata International Airport (DTTG)

Arrival

Time 2026-04-21 10:18
Airport Asyut International Airport (HEAT)
Time Latitude Longitude Altitude Speed Heading
2026-04-21 07:28 33.73529 9.91560 406 ft 0 kts 336°
2026-04-21 07:29 33.73532 9.91558 406 ft 4 kts 332°
2026-04-21 07:29 33.73555 9.91519 406 ft 14 kts 273°
2026-04-21 07:29 33.73473 9.91481 404 ft 16 kts 156°
2026-04-21 07:30 33.73398 9.91533 407 ft 5 kts 120°
2026-04-21 07:30 33.73418 9.91624 405 ft 19 kts 63°
2026-04-21 07:30 33.73503 9.91803 403 ft 27 kts 63°
2026-04-21 07:30 33.73588 9.92012 403 ft 28 kts 64°
2026-04-21 07:31 33.73667 9.92204 401 ft 23 kts 64°
2026-04-21 07:31 33.73683 9.92299 400 ft 1 kts 146°
2026-04-21 07:31 33.73643 9.92317 398 ft 14 kts 159°
2026-04-21 07:31 33.73571 9.92379 400 ft 8 kts 92°
2026-04-21 07:32 33.73619 9.92522 395 ft 29 kts 62°
2026-04-21 07:32 33.73733 9.92793 393 ft 39 kts 59°
2026-04-21 07:32 33.73856 9.93074 393 ft 36 kts 69°
2026-04-21 07:32 33.73966 9.93303 392 ft 24 kts 39°
2026-04-21 07:33 33.74010 9.93362 390 ft 0 kts 104°
2026-04-21 07:33 33.73996 9.93379 390 ft 6 kts 167°
2026-04-21 07:33 33.73956 9.93312 392 ft 32 kts 246°
2026-04-21 07:33 33.73757 9.92829 393 ft 96 kts 243°
2026-04-21 07:34 33.73359 9.91895 404 ft 154 kts 243°
2026-04-21 07:34 33.72840 9.90652 923 ft 169 kts 251°
2026-04-21 07:34 33.72862 9.89268 1694 ft 173 kts 294°
2026-04-21 07:34 33.73753 9.88318 2517 ft 179 kts 339°
2026-04-21 07:35 33.74994 9.88374 3250 ft 187 kts 21°
2026-04-21 07:35 33.75960 9.89429 3811 ft 197 kts 64°
2026-04-21 07:35 33.76349 9.91146 3895 ft 234 kts 84°
2026-04-21 07:35 33.76501 9.93125 4659 ft 231 kts 85°
2026-04-21 07:36 33.76630 9.94988 5751 ft 222 kts 85°
2026-04-21 07:36 33.76820 9.96910 6214 ft 241 kts 80°
2026-04-21 07:36 33.77218 9.98948 6708 ft 259 kts 73°
2026-04-21 07:36 33.77816 10.01058 7278 ft 274 kts 69°
2026-04-21 07:37 33.78559 10.03210 8006 ft 281 kts 65°
2026-04-21 07:37 33.79380 10.05343 8893 ft 283 kts 63°
2026-04-21 07:37 33.80258 10.07479 9766 ft 286 kts 62°
2026-04-21 07:37 33.81167 10.09600 10489 ft 292 kts 61°
2026-04-21 07:38 33.82162 10.11851 10915 ft 310 kts 60°
2026-04-21 07:38 33.83199 10.14165 11325 ft 326 kts 60°
2026-04-21 07:38 33.84310 10.16618 11791 ft 341 kts 60°
2026-04-21 07:38 33.85469 10.19164 12347 ft 351 kts 60°
2026-04-21 07:39 33.86644 10.21752 13063 ft 356 kts 60°
2026-04-21 07:39 33.87633 10.24352 13715 ft 363 kts 73°
2026-04-21 07:39 33.88100 10.27354 14340 ft 368 kts 82°
2026-04-21 07:39 33.88338 10.30440 14986 ft 372 kts 85°
2026-04-21 07:40 33.88466 10.33567 15623 ft 376 kts 87°
2026-04-21 07:40 33.88526 10.36729 16240 ft 380 kts 88°
2026-04-21 07:40 33.88539 10.39924 16852 ft 384 kts 89°
2026-04-21 07:40 33.88518 10.43155 17460 ft 388 kts 89°
2026-04-21 07:41 33.88475 10.46419 18052 ft 392 kts 90°
2026-04-21 07:41 33.88414 10.49713 18577 ft 396 kts 90°
2026-04-21 07:41 33.88344 10.53043 19082 ft 400 kts 90°
2026-04-21 07:41 33.88265 10.56402 19571 ft 404 kts 90°
2026-04-21 07:42 33.88179 10.59805 20063 ft 408 kts 90°
2026-04-21 07:42 33.88090 10.63223 20547 ft 411 kts 90°
2026-04-21 07:42 33.87997 10.66688 21021 ft 415 kts 90°
2026-04-21 07:42 33.87903 10.70178 21492 ft 419 kts 90°
2026-04-21 07:43 33.87734 10.73690 21950 ft 424 kts 99°
2026-04-21 07:43 33.86857 10.77083 22419 ft 428 kts 114°
2026-04-21 07:43 33.85526 10.80310 22867 ft 431 kts 118°
2026-04-21 07:43 33.84066 10.83469 23315 ft 435 kts 120°
2026-04-21 07:44 33.82557 10.86572 23727 ft 438 kts 121°
2026-04-21 07:44 33.80955 10.89767 24150 ft 440 kts 122°
2026-04-21 07:44 33.79350 10.92911 24566 ft 442 kts 122°
2026-04-21 07:44 33.77727 10.96058 24969 ft 444 kts 122°
2026-04-21 07:45 33.76112 10.99167 25385 ft 445 kts 122°
2026-04-21 07:45 33.74442 11.02368 25786 ft 447 kts 122°
2026-04-21 07:45 33.72826 11.05459 26165 ft 449 kts 122°
2026-04-21 07:45 33.71679 11.07649 26426 ft 451 kts 122°
2026-04-21 07:46 33.69458 11.11886 26929 ft 453 kts 122°
2026-04-21 07:46 33.67774 11.15092 27301 ft 455 kts 122°
2026-04-21 07:46 33.66078 11.18319 27653 ft 457 kts 122°
2026-04-21 07:46 33.64378 11.21551 28010 ft 459 kts 122°
2026-04-21 07:47 33.62665 11.24804 28357 ft 462 kts 122°
2026-04-21 07:47 33.60948 11.28065 28706 ft 463 kts 122°
2026-04-21 07:47 33.59221 11.31342 29036 ft 466 kts 122°
2026-04-21 07:47 33.57488 11.34629 29369 ft 468 kts 122°
2026-04-21 07:48 33.55743 11.37937 29692 ft 470 kts 122°
2026-04-21 07:48 33.53995 11.41246 30010 ft 472 kts 122°
2026-04-21 07:48 33.52236 11.44578 30288 ft 474 kts 122°
2026-04-21 07:48 33.50564 11.47983 30568 ft 475 kts 117°
2026-04-21 07:49 33.49135 11.51567 30845 ft 476 kts 114°
2026-04-21 07:49 33.47810 11.55200 31148 ft 477 kts 113°
2026-04-21 07:49 33.46940 11.57680 31411 ft 476 kts 112°
2026-04-21 07:49 33.45702 11.61284 31798 ft 474 kts 112°
2026-04-21 07:50 33.44463 11.64944 32195 ft 472 kts 112°
2026-04-21 07:50 33.43241 11.68587 32579 ft 471 kts 112°
2026-04-21 07:50 33.42026 11.72227 32944 ft 470 kts 111°
2026-04-21 07:50 33.40818 11.75854 33326 ft 468 kts 111°
2026-04-21 07:51 33.39618 11.79464 33696 ft 467 kts 111°
2026-04-21 07:51 33.38419 11.83068 34045 ft 466 kts 111°
2026-04-21 07:51 33.37225 11.86661 34346 ft 464 kts 112°
2026-04-21 07:51 33.36037 11.90236 34682 ft 462 kts 112°
2026-04-21 07:52 33.34848 11.93812 34915 ft 462 kts 112°
2026-04-21 07:52 33.33659 11.97388 35128 ft 463 kts 112°
2026-04-21 07:52 33.32466 12.00967 35342 ft 464 kts 112°
2026-04-21 07:52 33.31269 12.04552 35555 ft 464 kts 112°
2026-04-21 07:53 33.30072 12.08133 35759 ft 464 kts 112°
2026-04-21 07:53 33.28881 12.11723 35969 ft 465 kts 112°
2026-04-21 07:53 33.27698 12.15331 36170 ft 466 kts 112°
2026-04-21 07:53 33.26524 12.18942 36372 ft 466 kts 112°
2026-04-21 07:54 33.25384 12.22458 36559 ft 466 kts 112°
2026-04-21 07:54 33.24182 12.26168 36770 ft 466 kts 112°
2026-04-21 07:54 33.23021 12.29756 36914 ft 460 kts 112°
2026-04-21 07:54 33.21869 12.33313 36975 ft 459 kts 112°
2026-04-21 07:55 33.19543 12.40476 37008 ft 466 kts 112°
2026-04-21 07:55 33.17178 12.47745 37013 ft 472 kts 112°
2026-04-21 07:56 33.14806 12.55022 37013 ft 468 kts 112°
2026-04-21 07:56 33.12451 12.62236 37014 ft 466 kts 112°
2026-04-21 07:57 33.10091 12.69448 37016 ft 468 kts 112°
2026-04-21 07:57 33.07728 12.76643 37016 ft 470 kts 112°
2026-04-21 07:58 33.05338 12.83890 37019 ft 469 kts 112°
2026-04-21 07:58 33.02949 12.91114 37019 ft 468 kts 112°
2026-04-21 07:59 33.00556 12.98330 37029 ft 469 kts 113°
2026-04-21 07:59 32.97967 13.05482 37038 ft 470 kts 116°
2026-04-21 08:00 32.95232 13.12551 37043 ft 469 kts 116°
2026-04-21 08:00 32.92450 13.19580 37058 ft 469 kts 117°
2026-04-21 08:01 32.89776 13.26674 37049 ft 471 kts 112°
2026-04-21 08:02 32.86428 13.37697 37057 ft 473 kts 110°
2026-04-21 08:02 32.84327 13.45089 37045 ft 472 kts 110°
2026-04-21 08:03 32.82231 13.52489 37041 ft 472 kts 111°
2026-04-21 08:03 32.79969 13.59826 37032 ft 473 kts 112°
2026-04-21 08:04 32.77627 13.67132 37034 ft 473 kts 112°
2026-04-21 08:04 32.75260 13.74426 37034 ft 473 kts 112°
2026-04-21 08:05 32.72883 13.81714 37036 ft 473 kts 112°
2026-04-21 08:05 32.70496 13.89011 37035 ft 474 kts 112°
2026-04-21 08:06 32.68119 13.96275 37050 ft 475 kts 112°
2026-04-21 08:06 32.65740 14.03591 37043 ft 474 kts 112°
2026-04-21 08:07 32.63376 14.10875 37046 ft 474 kts 112°
2026-04-21 08:07 32.60984 14.18230 37052 ft 480 kts 112°
2026-04-21 08:08 32.58559 14.25669 37049 ft 485 kts 112°
2026-04-21 08:08 32.56127 14.33122 37050 ft 482 kts 112°
2026-04-21 08:09 32.53711 14.40507 37046 ft 480 kts 113°
2026-04-21 08:09 32.51283 14.47908 37053 ft 482 kts 113°
2026-04-21 08:10 32.48841 14.55332 37060 ft 484 kts 113°
2026-04-21 08:10 32.46389 14.62768 37061 ft 483 kts 113°
2026-04-21 08:11 32.43947 14.70158 37052 ft 482 kts 113°
2026-04-21 08:11 32.41494 14.77565 37060 ft 484 kts 113°
2026-04-21 08:12 32.39030 14.84988 37063 ft 485 kts 113°
2026-04-21 08:12 32.36562 14.92403 37046 ft 484 kts 113°
2026-04-21 08:13 32.34094 14.99803 37047 ft 483 kts 113°
2026-04-21 08:13 32.31547 15.07158 37046 ft 484 kts 116°
2026-04-21 08:14 32.28787 15.14365 37046 ft 484 kts 117°
2026-04-21 08:14 32.25945 15.21571 37049 ft 483 kts 117°
2026-04-21 08:15 32.23083 15.28756 37056 ft 483 kts 117°
2026-04-21 08:15 32.20211 15.35941 37065 ft 484 kts 117°
2026-04-21 08:16 32.17331 15.43126 37068 ft 485 kts 117°
2026-04-21 08:16 32.14444 15.50315 37070 ft 484 kts 117°
2026-04-21 08:17 32.11556 15.57492 37074 ft 484 kts 117°
2026-04-21 08:17 32.08661 15.64673 37074 ft 485 kts 117°
2026-04-21 08:18 32.05759 15.71856 37074 ft 486 kts 118°
2026-04-21 08:18 32.02851 15.79043 37073 ft 485 kts 118°
2026-04-21 08:19 31.99941 15.86219 37076 ft 485 kts 118°
2026-04-21 08:19 31.97023 15.93398 37076 ft 486 kts 118°
2026-04-21 08:20 31.94657 15.99020 37075 ft 486 kts 120°
2026-04-21 08:20 31.91426 16.06024 37071 ft 486 kts 122°
2026-04-21 08:21 31.88142 16.12912 37076 ft 485 kts 122°
2026-04-21 08:21 31.84818 16.19809 37079 ft 485 kts 122°
2026-04-21 08:22 31.81473 16.26722 37076 ft 487 kts 122°
2026-04-21 08:22 31.78117 16.33645 37075 ft 487 kts 122°
2026-04-21 08:23 31.74760 16.40561 37073 ft 486 kts 122°
2026-04-21 08:23 31.71475 16.47511 37081 ft 488 kts 121°
2026-04-21 08:24 31.68297 16.54569 37077 ft 490 kts 120°
2026-04-21 08:24 31.65141 16.61659 37080 ft 490 kts 120°
2026-04-21 08:25 31.61997 16.68736 37084 ft 489 kts 120°
2026-04-21 08:25 31.58857 16.75795 37085 ft 489 kts 120°
2026-04-21 08:26 31.55689 16.82901 37075 ft 491 kts 120°
2026-04-21 08:26 31.52522 16.89991 37083 ft 491 kts 120°
2026-04-21 08:27 31.49368 16.97041 37079 ft 491 kts 120°
2026-04-21 08:27 31.46172 17.04167 37081 ft 491 kts 121°
2026-04-21 08:28 31.43007 17.11208 37088 ft 493 kts 121°
2026-04-21 08:28 31.39805 17.18319 37088 ft 493 kts 121°
2026-04-21 08:29 31.36603 17.25415 37085 ft 493 kts 121°
2026-04-21 08:29 31.33400 17.32498 37087 ft 493 kts 121°
2026-04-21 08:30 31.30250 17.39642 37092 ft 495 kts 118°
2026-04-21 08:30 31.27286 17.46930 37087 ft 497 kts 117°
2026-04-21 08:31 31.24378 17.54243 37089 ft 496 kts 117°
2026-04-21 08:31 31.21477 17.61568 37092 ft 496 kts 117°
2026-04-21 08:32 31.18573 17.68895 37091 ft 498 kts 117°
2026-04-21 08:32 31.15654 17.76243 37091 ft 498 kts 117°
2026-04-21 08:33 31.12756 17.83525 37091 ft 498 kts 117°
2026-04-21 08:33 31.10311 17.89659 37098 ft 497 kts 118°
2026-04-21 08:34 31.06910 17.98171 37098 ft 499 kts 118°
2026-04-21 08:34 31.04446 18.04323 37100 ft 500 kts 118°
2026-04-21 08:35 31.01503 18.11656 37097 ft 499 kts 118°
2026-04-21 08:35 30.98560 18.18980 37103 ft 499 kts 118°
2026-04-21 08:36 30.95609 18.26304 37108 ft 500 kts 118°
2026-04-21 08:36 30.92648 18.33638 37095 ft 501 kts 118°
2026-04-21 08:37 30.89679 18.40977 37101 ft 500 kts 118°
2026-04-21 08:37 30.86730 18.48252 37100 ft 500 kts 118°
2026-04-21 08:38 30.83753 18.55581 37101 ft 501 kts 118°
2026-04-21 08:38 30.80763 18.62925 37103 ft 502 kts 118°
2026-04-21 08:39 30.77767 18.70272 37105 ft 502 kts 118°
2026-04-21 08:39 30.74789 18.77563 37110 ft 501 kts 118°
2026-04-21 08:40 30.71775 18.84923 37107 ft 503 kts 118°
2026-04-21 08:40 30.68762 18.92266 37107 ft 504 kts 118°
2026-04-21 08:41 30.65746 18.99603 37109 ft 503 kts 118°
2026-04-21 08:41 30.62748 19.06884 37112 ft 503 kts 119°
2026-04-21 08:42 30.59723 19.14212 37116 ft 504 kts 119°
2026-04-21 08:42 30.56681 19.21564 37114 ft 505 kts 119°
2026-04-21 08:43 30.53622 19.28947 37114 ft 504 kts 119°
2026-04-21 08:43 30.52098 19.32620 37115 ft 504 kts 119°
2026-04-21 08:44 30.47583 19.43478 37117 ft 505 kts 119°
2026-04-21 08:44 30.44521 19.50821 37113 ft 506 kts 119°
2026-04-21 08:45 30.40802 19.57591 37150 ft 490 kts 143°
2026-04-21 08:45 30.38136 19.59955 37150 ft 480 kts 155°
2026-04-21 08:45 30.35261 19.61931 37127 ft 480 kts 158°
2026-04-21 08:46 30.29407 19.65636 37119 ft 478 kts 159°
2026-04-21 08:46 30.23559 19.69244 37116 ft 476 kts 159°
2026-04-21 08:47 30.17710 19.72850 37118 ft 477 kts 159°
2026-04-21 08:47 30.11848 19.76479 37117 ft 479 kts 159°
2026-04-21 08:48 30.05973 19.80134 37119 ft 479 kts 159°
2026-04-21 08:48 30.00118 19.83791 37120 ft 478 kts 159°
2026-04-21 08:49 29.94267 19.87451 37121 ft 479 kts 159°
2026-04-21 08:49 29.88394 19.91127 37122 ft 481 kts 159°
2026-04-21 08:50 29.82513 19.94811 37121 ft 481 kts 159°
2026-04-21 08:50 29.76679 19.98464 37117 ft 480 kts 159°
2026-04-21 08:51 29.70807 20.02139 37121 ft 481 kts 159°
2026-04-21 08:51 29.64915 20.05824 37123 ft 482 kts 159°
2026-04-21 08:52 29.59014 20.09512 37119 ft 481 kts 159°
2026-04-21 08:52 29.53133 20.13185 37119 ft 481 kts 159°
2026-04-21 08:53 29.47247 20.16854 37122 ft 482 kts 159°
2026-04-21 08:53 29.41342 20.20531 37119 ft 483 kts 159°
2026-04-21 08:54 29.35445 20.24198 37118 ft 482 kts 159°
2026-04-21 08:54 29.29548 20.27863 37123 ft 482 kts 159°
2026-04-21 08:55 29.23650 20.31522 37125 ft 483 kts 159°
2026-04-21 08:55 29.17730 20.35189 37119 ft 483 kts 160°
2026-04-21 08:56 29.11814 20.38850 37124 ft 483 kts 160°
2026-04-21 08:56 29.05946 20.42477 37129 ft 482 kts 160°
2026-04-21 08:57 29.00038 20.46123 37120 ft 483 kts 160°
2026-04-21 08:57 28.94119 20.49770 37114 ft 483 kts 160°
2026-04-21 08:58 28.88206 20.53410 37114 ft 482 kts 160°
2026-04-21 08:58 28.82306 20.57039 37123 ft 482 kts 160°
2026-04-21 08:59 28.76390 20.60669 37127 ft 483 kts 160°
2026-04-21 08:59 28.70473 20.64296 37131 ft 483 kts 160°
2026-04-21 09:00 28.64555 20.67921 37123 ft 482 kts 160°
2026-04-21 09:00 28.58653 20.71532 37123 ft 482 kts 160°
2026-04-21 09:01 28.52740 20.75141 37126 ft 483 kts 160°
2026-04-21 09:01 28.46816 20.78754 37123 ft 482 kts 160°
2026-04-21 09:02 28.40914 20.82351 37125 ft 481 kts 160°
2026-04-21 09:02 28.35033 20.85963 37125 ft 485 kts 155°
2026-04-21 09:03 28.30279 20.91624 37161 ft 515 kts 124°
2026-04-21 09:03 28.28612 20.95246 37137 ft 520 kts 120°
2026-04-21 09:03 28.25563 21.02724 37125 ft 521 kts 118°
2026-04-21 09:04 28.22641 21.10161 37120 ft 519 kts 118°
2026-04-21 09:04 28.19700 21.17629 37119 ft 520 kts 118°
2026-04-21 09:05 28.16722 21.25122 37124 ft 521 kts 119°
2026-04-21 09:05 28.13721 21.32601 37127 ft 521 kts 119°
2026-04-21 09:06 28.10711 21.40045 37121 ft 519 kts 119°
2026-04-21 09:06 28.07688 21.47475 37126 ft 520 kts 120°
2026-04-21 09:07 28.04646 21.54909 37124 ft 521 kts 120°
2026-04-21 09:07 28.01587 21.62356 37124 ft 521 kts 120°
2026-04-21 09:08 27.98528 21.69778 37123 ft 520 kts 120°
2026-04-21 09:08 27.95462 21.77196 37126 ft 521 kts 120°
2026-04-21 09:09 27.92386 21.84618 37126 ft 522 kts 120°
2026-04-21 09:09 27.89300 21.92045 37123 ft 522 kts 120°
2026-04-21 09:10 27.86219 21.99447 37124 ft 521 kts 120°
2026-04-21 09:10 27.83174 22.06744 37124 ft 521 kts 120°
2026-04-21 09:11 27.80055 22.14203 37125 ft 522 kts 120°
2026-04-21 09:11 27.76967 22.21576 37123 ft 522 kts 120°
2026-04-21 09:12 27.73860 22.28978 37122 ft 521 kts 120°
2026-04-21 09:12 27.70748 22.36380 37124 ft 522 kts 120°
2026-04-21 09:13 27.67628 22.43780 37122 ft 523 kts 121°
2026-04-21 09:13 27.64868 22.51391 37125 ft 527 kts 112°
2026-04-21 09:14 27.62675 22.59299 37125 ft 528 kts 110°
2026-04-21 09:14 27.60592 22.67247 37126 ft 529 kts 110°
2026-04-21 09:15 27.58530 22.75216 37125 ft 530 kts 110°
2026-04-21 09:15 27.56470 22.83187 37127 ft 529 kts 110°
2026-04-21 09:16 27.54413 22.91141 37128 ft 529 kts 110°
2026-04-21 09:16 27.52349 22.99100 37120 ft 529 kts 110°
2026-04-21 09:17 27.50288 23.07022 37121 ft 530 kts 110°
2026-04-21 09:17 27.48210 23.14988 37121 ft 530 kts 110°
2026-04-21 09:18 27.46130 23.22939 37124 ft 529 kts 110°
2026-04-21 09:18 27.44044 23.30895 37124 ft 530 kts 110°
2026-04-21 09:19 27.41951 23.38851 37120 ft 531 kts 110°
2026-04-21 09:19 27.39851 23.46813 37120 ft 530 kts 110°
2026-04-21 09:20 27.37749 23.54770 37123 ft 530 kts 110°
2026-04-21 09:20 27.35640 23.62726 37115 ft 531 kts 110°
2026-04-21 09:21 27.33526 23.70685 37113 ft 531 kts 110°
2026-04-21 09:21 27.31762 23.77307 37115 ft 531 kts 110°
2026-04-21 09:22 27.29643 23.85252 37117 ft 530 kts 110°
2026-04-21 09:22 27.27518 23.93194 37113 ft 531 kts 111°
2026-04-21 09:23 27.25382 24.01152 37120 ft 532 kts 111°
2026-04-21 09:23 27.23238 24.09125 37116 ft 532 kts 111°
2026-04-21 09:24 27.21097 24.17071 37107 ft 531 kts 111°
2026-04-21 09:24 27.18951 24.25012 37113 ft 532 kts 111°
2026-04-21 09:25 27.16808 24.32922 37119 ft 533 kts 111°
2026-04-21 09:25 27.14646 24.40883 37115 ft 532 kts 111°
2026-04-21 09:26 27.12485 24.48826 37107 ft 532 kts 111°
2026-04-21 09:26 27.10318 24.56765 37115 ft 533 kts 111°
2026-04-21 09:27 27.08139 24.64726 37112 ft 534 kts 111°
2026-04-21 09:27 27.05957 24.72682 37109 ft 533 kts 111°
2026-04-21 09:28 27.03774 24.80620 37110 ft 533 kts 111°
2026-04-21 09:28 27.01580 24.88574 37114 ft 534 kts 111°
2026-04-21 09:29 26.99385 24.96526 37113 ft 535 kts 111°
2026-04-21 09:29 26.97292 25.04530 37111 ft 534 kts 110°
2026-04-21 09:30 26.95260 25.12543 37110 ft 535 kts 110°
2026-04-21 09:30 26.93234 25.20578 37110 ft 536 kts 110°
2026-04-21 09:31 26.91214 25.28588 37113 ft 536 kts 110°
2026-04-21 09:31 26.89185 25.36610 37110 ft 535 kts 110°
2026-04-21 09:32 26.87165 25.44578 37109 ft 536 kts 110°
2026-04-21 09:32 26.85119 25.52615 37108 ft 537 kts 110°
2026-04-21 09:33 26.83070 25.60648 37110 ft 537 kts 110°
2026-04-21 09:33 26.81017 25.68676 37113 ft 536 kts 110°
2026-04-21 09:34 26.78947 25.76743 37103 ft 537 kts 110°
2026-04-21 09:34 26.76892 25.84729 37105 ft 538 kts 110°
2026-04-21 09:35 26.74820 25.92760 37100 ft 537 kts 110°
2026-04-21 09:35 26.72746 26.00783 37101 ft 536 kts 110°
2026-04-21 09:36 26.70664 26.08813 37104 ft 538 kts 110°
2026-04-21 09:36 26.68574 26.16849 37101 ft 538 kts 110°
2026-04-21 09:37 26.66482 26.24877 37102 ft 537 kts 110°
2026-04-21 09:37 26.64390 26.32887 37098 ft 537 kts 110°
2026-04-21 09:38 26.62291 26.40898 37101 ft 538 kts 110°
2026-04-21 09:38 26.60180 26.48935 37096 ft 539 kts 110°
2026-04-21 09:39 26.58070 26.56953 37094 ft 538 kts 110°
2026-04-21 09:39 26.55956 26.64968 37094 ft 537 kts 110°
2026-04-21 09:40 26.53834 26.72986 37093 ft 538 kts 110°
2026-04-21 09:40 26.51706 26.81008 37096 ft 539 kts 110°
2026-04-21 09:41 26.49576 26.89017 37092 ft 538 kts 110°
2026-04-21 09:41 26.47442 26.97027 37088 ft 538 kts 110°
2026-04-21 09:42 26.45300 27.05042 37087 ft 539 kts 111°
2026-04-21 09:42 26.43164 27.13015 37088 ft 539 kts 111°
2026-04-21 09:43 26.41013 27.21026 37083 ft 539 kts 111°
2026-04-21 09:43 26.38844 27.29086 37084 ft 539 kts 111°
2026-04-21 09:44 26.36695 27.37049 37086 ft 540 kts 111°
2026-04-21 09:44 26.34525 27.45072 37081 ft 540 kts 111°
2026-04-21 09:45 26.32353 27.53082 37080 ft 539 kts 111°
2026-04-21 09:45 26.30178 27.61085 37083 ft 540 kts 111°
2026-04-21 09:46 26.27995 27.69101 37081 ft 541 kts 111°
2026-04-21 09:46 26.25807 27.77111 37077 ft 541 kts 111°
2026-04-21 09:47 26.23614 27.85121 37081 ft 540 kts 111°
2026-04-21 09:47 26.21417 27.93128 37075 ft 540 kts 111°
2026-04-21 09:48 26.19212 28.01144 37074 ft 541 kts 111°
2026-04-21 09:48 26.17017 28.09107 37078 ft 541 kts 111°
2026-04-21 09:49 26.14803 28.17117 37081 ft 540 kts 111°
2026-04-21 09:49 26.12588 28.25110 37077 ft 541 kts 111°
2026-04-21 09:50 26.11098 28.30476 37074 ft 542 kts 110°
2026-04-21 09:50 26.10846 28.41532 37106 ft 544 kts 70°
2026-04-21 09:51 26.13590 28.49358 37085 ft 543 kts 62°
2026-04-21 09:51 26.16633 28.57022 37076 ft 539 kts 62°
2026-04-21 09:52 26.19660 28.64659 37085 ft 539 kts 62°
2026-04-21 09:52 26.22640 28.72345 37072 ft 541 kts 63°
2026-04-21 09:53 26.25568 28.80077 37075 ft 542 kts 63°
2026-04-21 09:53 26.28443 28.87819 37079 ft 541 kts 63°
2026-04-21 09:54 26.31264 28.95530 37083 ft 541 kts 64°
2026-04-21 09:54 26.34080 29.03315 37085 ft 542 kts 64°
2026-04-21 09:55 26.36880 29.11120 37088 ft 542 kts 64°
2026-04-21 09:55 26.39681 29.18988 37089 ft 541 kts 64°
2026-04-21 09:56 26.42446 29.26797 37092 ft 541 kts 64°
2026-04-21 09:56 26.44737 29.33290 37096 ft 542 kts 64°
2026-04-21 09:57 26.47617 29.41478 37097 ft 543 kts 64°
2026-04-21 09:57 26.50387 29.49382 36770 ft 542 kts 65°
2026-04-21 09:58 26.51758 29.53303 36156 ft 539 kts 65°
2026-04-21 09:58 26.53117 29.57188 35380 ft 537 kts 65°
2026-04-21 09:58 26.54469 29.61059 34639 ft 533 kts 65°
2026-04-21 09:58 26.55809 29.64903 33874 ft 529 kts 65°
2026-04-21 09:59 26.57142 29.68732 32845 ft 529 kts 65°
2026-04-21 09:59 26.58463 29.72530 31681 ft 533 kts 65°
2026-04-21 09:59 26.59808 29.76406 30485 ft 537 kts 66°
2026-04-21 09:59 26.61162 29.80316 29147 ft 542 kts 66°
2026-04-21 10:00 26.62517 29.84246 27905 ft 541 kts 66°
2026-04-21 10:00 26.63861 29.88162 26670 ft 540 kts 66°
2026-04-21 10:00 26.65199 29.92075 25482 ft 538 kts 66°
2026-04-21 10:00 26.66524 29.95961 24162 ft 536 kts 66°
2026-04-21 10:01 26.67850 29.99847 22929 ft 531 kts 66°
2026-04-21 10:01 26.69164 30.03663 21910 ft 519 kts 66°
2026-04-21 10:01 26.70453 30.07381 20939 ft 506 kts 66°
2026-04-21 10:01 26.71717 30.11001 19983 ft 495 kts 66°
2026-04-21 10:02 26.74133 30.17879 18148 ft 473 kts 66°
2026-04-21 10:02 26.75316 30.21266 17186 ft 461 kts 67°
2026-04-21 10:02 26.76461 30.24569 16229 ft 450 kts 67°
2026-04-21 10:03 26.77575 30.27794 15307 ft 439 kts 67°
2026-04-21 10:03 26.78658 30.30940 14418 ft 428 kts 67°
2026-04-21 10:03 26.79713 30.34021 13448 ft 419 kts 68°
2026-04-21 10:03 26.80742 30.37044 12423 ft 411 kts 67°
2026-04-21 10:04 26.81761 30.40044 11823 ft 414 kts 67°
2026-04-21 10:04 26.82774 30.43024 11465 ft 405 kts 67°
2026-04-21 10:04 26.83771 30.45960 11272 ft 402 kts 67°
2026-04-21 10:04 26.84770 30.48894 11195 ft 405 kts 67°
2026-04-21 10:05 26.85743 30.51763 11160 ft 379 kts 67°
2026-04-21 10:05 26.86641 30.54421 11139 ft 350 kts 67°
2026-04-21 10:05 26.87466 30.56876 11137 ft 324 kts 66°
2026-04-21 10:05 26.88232 30.59154 11141 ft 304 kts 66°
2026-04-21 10:06 26.88725 30.60616 11136 ft 303 kts 66°
2026-04-21 10:06 26.89478 30.62828 11139 ft 304 kts 66°
2026-04-21 10:06 26.90217 30.64998 11136 ft 304 kts 66°
2026-04-21 10:06 26.90971 30.67214 11140 ft 304 kts 66°
2026-04-21 10:07 26.91610 30.69088 11127 ft 305 kts 66°
2026-04-21 10:07 26.92365 30.71304 10865 ft 302 kts 66°
2026-04-21 10:07 26.92837 30.72690 10554 ft 301 kts 66°
2026-04-21 10:07 26.93576 30.74874 10094 ft 298 kts 66°
2026-04-21 10:08 26.94307 30.77040 9581 ft 295 kts 66°
2026-04-21 10:08 26.94429 30.77403 9498 ft 295 kts 66°
2026-04-21 10:08 26.94672 30.78123 9347 ft 293 kts 66°
2026-04-21 10:08 26.95082 30.79338 9080 ft 291 kts 65°
2026-04-21 10:09 26.95789 30.81439 8573 ft 288 kts 65°
2026-04-21 10:09 26.96490 30.83514 8135 ft 284 kts 66°
2026-04-21 10:09 26.97185 30.85584 7659 ft 282 kts 65°
2026-04-21 10:09 26.97871 30.87622 7196 ft 278 kts 65°
2026-04-21 10:10 26.98551 30.89643 6736 ft 275 kts 65°
2026-04-21 10:10 26.99221 30.91640 6324 ft 271 kts 65°
2026-04-21 10:10 26.99889 30.93615 5791 ft 270 kts 65°
2026-04-21 10:10 27.00548 30.95582 5375 ft 270 kts 65°
2026-04-21 10:11 27.01208 30.97558 5166 ft 271 kts 65°
2026-04-21 10:11 27.01693 30.99010 5099 ft 266 kts 65°
2026-04-21 10:11 27.02274 31.00956 5035 ft 271 kts 76°
2026-04-21 10:11 27.02154 31.03078 5048 ft 282 kts 105°
2026-04-21 10:12 27.01169 31.04933 5054 ft 275 kts 134°
2026-04-21 10:12 26.99564 31.06075 5039 ft 277 kts 159°
2026-04-21 10:12 26.97726 31.06726 5029 ft 277 kts 164°
2026-04-21 10:12 26.95871 31.07314 4825 ft 276 kts 163°
2026-04-21 10:13 26.94200 31.08284 4534 ft 265 kts 135°
2026-04-21 10:13 26.93194 31.09899 4382 ft 245 kts 104°
2026-04-21 10:13 26.93074 31.11680 4063 ft 224 kts 73°
2026-04-21 10:13 26.93814 31.13173 3554 ft 215 kts 38°
2026-04-21 10:14 26.95095 31.13850 3275 ft 199 kts
2026-04-21 10:14 26.96337 31.13494 3081 ft 180 kts 324°
2026-04-21 10:14 26.97060 31.12479 3038 ft 166 kts 305°
2026-04-21 10:14 26.97649 31.11396 2901 ft 160 kts 305°
2026-04-21 10:15 26.98226 31.10351 2691 ft 155 kts 305°
2026-04-21 10:15 26.98798 31.09355 2427 ft 149 kts 307°
2026-04-21 10:15 26.99357 31.08391 2217 ft 146 kts 308°
2026-04-21 10:15 26.99960 31.07483 1939 ft 145 kts 313°
2026-04-21 10:16 27.00599 31.06614 1731 ft 139 kts 312°
2026-04-21 10:16 27.01183 31.05835 1592 ft 127 kts 313°
2026-04-21 10:16 27.01734 31.05087 1417 ft 125 kts 313°
2026-04-21 10:16 27.02295 31.04329 1225 ft 127 kts 313°
2026-04-21 10:17 27.02869 31.03568 1041 ft 128 kts 314°
2026-04-21 10:17 27.03444 31.02806 872 ft 128 kts 315°
2026-04-21 10:17 27.04000 31.02061 779 ft 115 kts 312°
2026-04-21 10:17 27.04423 31.01513 770 ft 78 kts 306°
2026-04-21 10:18 27.04650 31.01251 764 ft 14 kts
2026-04-21 10:18 27.04703 31.01320 764 ft 21 kts 64°
2026-04-21 10:18 27.04818 31.01486 765 ft 26 kts 37°
2026-04-21 10:18 27.04935 31.01536 764 ft 13 kts
2026-04-21 10:19 27.04982 31.01556 764 ft 0 kts 39°